Wind_Speed
7 6 6 6 6 6 6 6 7 8 8 9 9 10 11 11 11 11 11 12 12 12 11 12 12 11 10 9 8 7 7 7 7 7 9 10 11 13 16 17 19 20 21
8 7 7 7 7 7 7 7 8 8 8 9 9 9 10 11 11 11 12 12 12 12 12 12 12 12 11 11 10 10 9 9 8 9 9 10 12 13 15 17 19 20 21
8 8 8 8 8 8 8 8 8 9 9 9 9 10 10 11 11 11 12 12 13 13 12 13 13 13 13 12 12 11 11 11 11 11 11 11 12 14 15 17 19 20 22
9 9 9 9 8 8 8 9 9 9 10 10 10 11 11 11 12 12 13 13 14 14 14 14 14 14 14 14 14 14 13 13 13 13 13 13 14 15 16 18 19 21 22
10 10 10 9 9 9 10 10 10 11 11 11 12 12 12 13 13 14 14 14 15 16 16 16 16 16 16 16 16 16 16 16 16 16 16 16 17 18 19 20 21 22 24
11 11 11 11 11 11 11 12 12 13 13 14 14 14 15 15 15 16 16 17 17 18 18 18 18 18 18 18 18 19 19 19 19 20 20 20 20 21 22 23 23 24 25
12 13 13 12 12 13 13 14 14 15 15 16 16 17 17 18 18 19 19 20 20 21 21 21 21 21 21 21 22 22 22 22 23 23 23 23 24 24 25 26 27 27 28
14 14 14 14 15 15 16 16 16 17 18 18 19 19 20 21 22 22 22 23 23 23 23 23 24 24 24 24 25 25 26 26 26 26 27 28 29 29 29 30 31 31 32
15 15 16 16 16 17 18 18 19 20 21 21 22 22 23 24 25 25 25 25 26 26 26 27 27 27 27 28 28 28 29 29 30 31 31 32 32 33 33 33 34 35 35
16 17 17 18 18 19 20 20 21 22 23 24 24 25 26 27 28 28 28 28 28 28 29 30 30 30 31 31 32 32 33 33 34 34 35 36 36 36 37 37 37 38 38
19 19 20 21 21 21 22 23 24 25 26 27 27 28 29 29 30 30 30 31 31 31 32 32 33 34 35 35 36 36 37 37 38 38 39 39 40 40 40 40 40 40 41
22 22 23 23 24 24 25 26 27 28 29 29 30 31 32 32 32 32 33 34 34 35 35 36 37 37 38 39 40 41 41 41 41 41 41 41 41 41 42 42 43 43 44
24 24 25 25 26 27 28 29 30 30 31 32 33 34 34 34 35 35 36 37 37 38 38 39 40 41 41 42 43 44 44 44 44 44 44 43 43 44 44 44 44 45 45
27 27 28 28 29 30 31 32 33 34 34 35 36 36 37 37 38 38 39 40 41 41 42 42 43 44 45 45 46 46 46 46 46 46 46 46 46 46 46 46 46 46 46
29 30 30 31 32 33 34 35 36 37 37 38 38 39 39 40 40 41 42 43 44 44 44 45 46 47 47 47 48 48 48 49 49 49 49 48 48 48 47 47 47 48 48
32 32 33 34 35 36 37 38 38 39 40 41 41 42 42 43 44 45 45 46 47 47 47 47 49 50 50 50 50 51 51 51 51 51 51 51 50 50 50 49 49 49 49
34 35 36 37 38 38 39 40 41 41 42 43 44 44 45 46 47 47 48 49 49 49 50 51 51 52 53 53 53 53 53 53 53 53 52 52 52 52 51 51 51 50 50
37 38 39 39 40 41 42 43 43 44 44 45 46 47 48 49 49 50 50 51 51 53 54 54 55 55 55 55 54 54 54 54 53 53 52 52 52 52 52 52 51 51 50
40 40 41 42 42 43 44 44 45 45 46 47 48 49 50 51 52 52 53 54 55 55 56 56 56 57 56 55 55 54 54 54 54 53 53 53 53 53 52 51 51 50 50
42 42 43 44 45 45 46 46 47 47 48 49 50 52 53 54 54 55 55 56 56 57 57 57 57 56 55 55 55 54 54 54 54 53 53 52 52 52 51 51 50 50 50
43 44 45 45 46 47 47 48 49 50 51 52 53 54 55 55 56 56 56 57 57 57 57 56 56 55 55 54 54 54 54 53 53 53 52 51 51 50 49 49 49 49 49
44 45 46 46 47 48 49 49 50 52 53 54 54 55 56 56 56 56 57 57 57 57 57 57 56 55 55 55 55 55 54 53 53 52 51 50 50 48 47 47 47 47 46
45 46 47 48 49 49 50 51 52 54 55 55 56 56 56 56 57 57 58 58 58 58 58 57 56 55 56 55 55 55 54 53 52 52 51 50 49 48 47 46 45 45 44
47 47 48 49 50 51 52 52 54 55 56 56 57 57 57 57 58 58 58 58 58 58 58 57 56 56 55 55 54 54 53 52 51 50 49 48 47 46 45 44 44 44 43
49 49 50 51 51 52 52 53 54 55 56 57 57 57 57 58 58 58 58 58 57 57 57 57 56 56 55 54 53 53 52 50 49 48 47 46 45 44 44 43 43 43 42
50 51 51 52 53 53 54 55 55 56 57 57 58 58 58 58 59 59 58 57 57 56 56 56 56 55 54 52 51 50 49 48 46 45 45 44 44 44 43 42 41 40 40
Wind_Direction
245 255 265 277 291 301 307 314 320 326 332 335 338 340 343 346 350 352 353 355 355 354 355 356 358 356 352 349 344 334 324 313 300 285 270 259 252 245 241 239 239 237 236
244 252 263 276 287 293 300 306 312 318 323 328 330 333 337 340 342 344 345 346 347 348 347 347 347 347 344 340 335 328 319 311 302 292 281 272 263 255 250 246 242 241 240
245 252 262 273 280 287 295 301 305 311 316 321 325 327 330 333 335 336 336 338 340 340 340 340 339 338 337 334 330 324 318 311 304 296 286 279 271 263 258 255 250 247 246
247 253 261 267 274 281 290 298 301 305 309 314 317 320 323 324 326 328 329 329 329 330 331 331 331 331 329 327 325 321 315 310 303 299 292 284 278 270 263 259 255 253 251
250 255 259 265 271 277 284 290 295 300 303 305 308 311 315 317 317 319 320 320 320 321 321 321 321 322 321 319 317 316 313 308 303 299 294 290 282 276 270 264 261 258 255
253 257 261 267 272 278 284 289 292 295 297 300 303 304 307 309 310 310 310 311 313 313 312 312 313 313 313 311 309 308 306 303 301 298 295 293 286 279 274 269 265 262 260
258 262 264 269 275 279 284 288 291 294 295 296 297 298 301 303 304 304 303 303 305 306 306 305 305 306 306 306 304 302 301 299 298 296 294 292 287 281 277 273 268 265 262
263 266 269 272 276 280 284 287 290 292 294 294 295 295 298 300 301 301 301 300 300 300 300 300 300 300 301 301 301 300 300 298 296 294 293 291 289 283 279 276 272 269 266
266 270 274 277 280 282 284 286 288 290 292 293 294 294 295 297 299 299 299 298 298 298 297 297 297 298 298 298 298 298 297 297 296 294 292 291 290 286 282 278 275 272 269
269 273 276 279 281 283 285 287 288 289 291 291 292 293 295 295 296 297 297 297 296 296 296 295 296 296 296 296 296 296 295 294 294 294 293 291 289 286 283 280 277 274 271
271 274 277 280 282 283 285 287 289 290 291 291 292 293 294 295 296 297 296 296 295 294 294 294 294 294 295 295 295 295 294 293 292 292 291 290 289 286 283 281 279 276 273
272 275 277 280 282 284 286 288 289 290 290 291 292 293 293 294 295 296 296 296 295 294 293 293 294 294 294 294 294 294 294 293 292 292 291 290 288 286 284 282 279 277 275
273 275 278 280 283 285 287 289 290 290 291 291 292 292 293 293 294 294 295 296 295 295 294 293 293 293 294 294 295 294 294 293 292 292 291 289 287 286 284 282 279 278 276
274 276 278 281 283 286 288 289 290 291 291 292 292 292 293 293 293 294 295 295 295 295 295 294 293 294 294 295 295 294 293 293 292 292 291 290 288 286 285 282 279 277 275
275 276 278 281 284 286 288 289 290 290 291 292 292 293 294 294 294 294 294 295 295 295 295 295 295 295 295 295 295 294 294 293 293 292 291 289 288 286 284 282 280 278 275
275 277 279 281 284 285 287 288 289 290 291 292 293 294 294 294 295 295 295 295 295 295 295 295 296 296 295 295 295 294 293 293 292 291 290 288 286 285 283 281 279 277 274
276 278 281 283 284 285 286 288 289 290 291 292 293 293 293 294 295 295 295 295 295 295 296 296 296 296 296 295 295 294 293 292 291 290 289 287 286 285 284 281 278 276 273
278 280 282 283 285 286 287 288 289 290 291 292 293 293 294 295 295 295 295 295 296 296 296 296 297 296 296 296 295 294 293 292 290 290 289 287 286 285 283 281 277 275 273
279 280 281 283 284 286 287 288 289 290 291 292 293 294 295 295 296 296 295 296 296 296 296 297 297 297 297 296 295 294 293 292 291 290 289 287 286 285 283 281 278 274 273
280 281 282 283 285 286 288 289 290 291 292 293 293 294 295 295 296 296 296 296 296 296 296 296 296 296 296 295 294 294 293 293 292 290 289 287 286 285 283 281 279 276 273
280 281 283 284 285 287 287 288 289 290 292 293 294 295 295 295 295 296 296 297 297 296 297 296 296 295 295 295 294 294 293 293 292 291 289 287 286 285 283 281 280 277 274
280 282 283 284 286 287 287 288 289 291 292 293 294 295 295 295 296 296 297 297 297 297 297 296 296 295 294 294 294 294 293 293 292 291 288 287 285 285 283 281 280 279 274
282 283 284 285 286 287 288 289 290 291 293 294 294 295 295 295 296 296 297 297 297 297 297 296 296 296 295 295 295 294 293 292 292 290 288 286 285 285 283 281 280 279 274
284 285 286 287 288 289 289 290 291 292 293 294 295 295 295 296 296 297 297 298 298 297 296 296 295 295 295 294 294 293 293 291 291 290 288 286 285 284 283 281 279 279 275
284 286 287 288 289 289 290 291 292 293 294 294 295 295 295 296 296 297 298 298 298 297 296 295 295 295 294 294 293 292 291 290 290 288 287 285 285 284 283 281 280 279 275
284 285 286 288 289 289 290 291 292 293 294 295 295 295 296 296 297 297 297 298 298 297 296 296 295 295 293 292 292 290 290 289 288 287 286 285 285 284 283 281 280 278 275
Height
5855 5855 5856 5856 5856 5856 5855 5855 5854 5853 5852 5851 5850 5849 5847 5846 5844 5842 5841 5839 5837 5836 5834 5832 5831 5829 5828 5827 5826 5825 5824 5824 5824 5823 5823 5824 5825 5826 5827 5829 5831 5832 5834
5853 5854 5854 5854 5854 5854 5853 5853 5852 5852 5851 5850 5849 5848 5846 5845 5843 5842 5840 5839 5837 5835 5833 5832 5830 5829 5827 5826 5825 5824 5823 5823 5822 5822 5821 5821 5822 5823 5824 5825 5827 5828 5830
5851 5851 5852 5852 5852 5852 5851 5851 5850 5850 5849 5848 5847 5846 5845 5844 5842 5841 5839 5838 5836 5834 5833 5831 5829 5828 5826 5825 5823 5822 5821 5821 5820 5819 5819 5818 5819 5819 5820 5821 5822 5824 5825
5848 5849 5849 5850 5850 5849 5849 5849 5848 5848 5847 5846 5845 5844 5843 5842 5840 5839 5837 5836 5834 5833 5831 5829 5828 5826 5824 5823 5822 5820 5819 5818 5817 5816 5816 5815 5815 5815 5816 5817 5817 5818 5820
5846 5846 5847 5847 5847 5847 5847 5846 5846 5845 5844 5844 5843 5842 5841 5839 5838 5836 5835 5834 5832 5830 5829 5827 5825 5824 5822 5820 5819 5817 5816 5815 5814 5813 5812 5812 5811 5811 5811 5812 5812 5813 5814
5842 5843 5843 5844 5844 5844 5843 5843 5842 5842 5841 5840 5839 5838 5837 5836 5834 5833 5832 5830 5829 5827 5825 5824 5822 5820 5819 5817 5815 5814 5812 5811 5810 5809 5808 5807 5806 5806 5805 5805 5806 5806 5807
5839 5840 5840 5840 5840 5840 5840 5839 5839 5838 5837 5836 5835 5834 5833 5832 5830 5829 5827 5826 5824 5822 5821 5819 5817 5816 5814 5812 5810 5809 5807 5806 5804 5803 5802 5801 5800 5799 5798 5798 5798 5798 5799
5835 5835 5835 5835 5835 5835 5835 5835 5834 5833 5832 5831 5830 5829 5828 5826 5825 5823 5822 5820 5819 5817 5815 5813 5812 5810 5808 5806 5805 5803 5801 5799 5797 5796 5795 5793 5791 5790 5789 5789 5788 5789 5789
5830 5831 5831 5830 5831 5830 5830 5829 5829 5828 5827 5826 5825 5823 5822 5820 5818 5817 5815 5813 5812 5810 5808 5807 5805 5803 5801 5799 5798 5796 5794 5791 5789 5787 5785 5783 5781 5779 5778 5777 5777 5777 5778
5825 5826 5826 5825 5825 5825 5824 5823 5823 5822 5820 5819 5818 5816 5815 5813 5811 5809 5807 5806 5804 5802 5800 5798 5797 5795 5793 5791 5789 5787 5785 5782 5780 5777 5775 5772 5770 5768 5766 5765 5764 5764 5764
5820 5820 5820 5820 5819 5818 5818 5817 5816 5815 5813 5812 5810 5809 5807 5805 5803 5800 5798 5797 5795 5793 5791 5789 5787 5785 5783 5780 5778 5776 5773 5771 5769 5766 5763 5760 5757 5755 5753 5751 5750 5750 5750
5814 5814 5814 5813 5813 5812 5811 5810 5808 5807 5805 5804 5802 5800 5798 5795 5793 5791 5789 5786 5784 5783 5781 5779 5776 5774 5771 5769 5766 5763 5760 5758 5755 5753 5750 5747 5744 5742 5739 5737 5736 5735 5734
5807 5807 5807 5806 5805 5804 5803 5802 5800 5798 5796 5794 5792 5790 5788 5786 5783 5781 5778 5776 5773 5771 5769 5767 5764 5762 5759 5756 5753 5749 5746 5743 5740 5738 5735 5733 5730 5727 5725 5723 5721 5720 5719
5800 5800 5799 5798 5797 5796 5795 5793 5791 5789 5787 5785 5782 5780 5778 5775 5773 5770 5767 5765 5762 5759 5756 5754 5751 5748 5745 5742 5739 5735 5731 5728 5725 5723 5720 5717 5714 5712 5709 5707 5705 5704 5703
5792 5791 5791 5790 5788 5787 5785 5783 5781 5779 5776 5774 5771 5769 5766 5764 5761 5758 5755 5752 5749 5746 5743 5740 5737 5734 5731 5728 5724 5720 5717 5713 5710 5707 5704 5701 5698 5696 5693 5691 5689 5687 5686
5783 5782 5781 5780 5778 5777 5775 5773 5770 5768 5765 5762 5760 5757 5754 5751 5748 5745 5742 5738 5735 5732 5729 5726 5723 5719 5716 5712 5709 5705 5701 5697 5693 5690 5686 5683 5681 5679 5676 5674 5672 5670 5669
5773 5772 5771 5769 5768 5766 5764 5762 5759 5757 5754 5750 5747 5744 5741 5738 5735 5731 5728 5724 5721 5717 5714 5710 5707 5703 5699 5695 5691 5687 5684 5680 5676 5672 5669 5666 5663 5660 5658 5656 5654 5652 5651
5762 5761 5760 5758 5756 5754 5752 5749 5747 5744 5742 5738 5735 5731 5728 5725 5721 5717 5713 5710 5706 5702 5698 5694 5690 5685 5681 5677 5673 5669 5665 5662 5658 5654 5650 5647 5644 5641 5639 5637 5635 5634 5633
5751 5749 5748 5746 5744 5742 5739 5737 5734 5731 5728 5725 5722 5718 5714 5710 5707 5703 5698 5694 5690 5686 5682 5677 5672 5668 5663 5659 5655 5651 5647 5643 5639 5635 5632 5628 5625 5622 5620 5618 5617 5616 5615
5738 5737 5735 5733 5731 5729 5726 5723 5720 5717 5714 5711 5707 5703 5699 5695 5692 5687 5683 5678 5673 5669 5664 5660 5655 5650 5646 5641 5637 5633 5629 5625 5621 5617 5613 5610 5607 5604 5602 5600 5598 5597 5597
5725 5724 5722 5720 5718 5715 5712 5709 5706 5703 5700 5696 5692 5688 5684 5680 5676 5671 5667 5662 5657 5652 5647 5642 5638 5633 5628 5624 5620 5615 5611 5607 5603 5599 5596 5593 5589 5587 5584 5582 5581 5580 5579
5712 5710 5708 5706 5703 5701 5698 5695 5692 5688 5685 5681 5677 5673 5668 5663 5659 5654 5650 5645 5640 5634 5629 5625 5620 5616 5611 5607 5602 5598 5594 5590 5586 5582 5579 5575 5572 5570 5567 5566 5564 5563 5562
5699 5697 5695 5692 5689 5686 5683 5680 5676 5673 5669 5665 5660 5656 5651 5647 5642 5637 5632 5627 5623 5617 5612 5607 5603 5599 5594 5589 5585 5580 5577 5573 5569 5565 5562 5559 5556 5553 5551 5550 5548 5547 5546
5685 5683 5680 5677 5674 5671 5668 5664 5661 5656 5652 5648 5644 5639 5635 5630 5625 5620 5615 5610 5605 5600 5595 5590 5585 5581 5577 5572 5568 5563 5559 5555 5552 5548 5545 5542 5540 5538 5535 5534 5533 5532 5531
5671 5668 5665 5662 5659 5656 5652 5649 5645 5640 5636 5631 5627 5622 5618 5613 5608 5603 5598 5593 5587 5582 5578 5573 5568 5563 5559 5555 5551 5547 5542 5539 5535 5531 5528 5526 5524 5522 5520 5519 5518 5516 5515
5655 5653 5650 5647 5643 5640 5636 5633 5629 5624 5620 5615 5610 5606 5601 5596 5591 5586 5581 5576 5571 5566 5561 5556 5551 5546 5542 5538 5534 5530 5526 5523 5519 5516 5513 5511 5509 5507 5505 5503 5502 5501 5501